Regional Weather Roundup
Issued by NWS

Home | Current Version | Previous Version | Text Only | Print | Product List | Glossary Off
Versions: 1 2 3 4 5 6 7 8 9 10 11 12 13 14 15 16 17 18 19 20 21 22 23 24 25 26 27 28 29 30 31 32 33 34 35 36 37 38 39 40 41 42 43 44 45 46 47 48 49 50

000
ASUS45 KBOU 070510
RWRCO

WEATHER ROUNDUP FOR COLORADO
NATIONAL WEATHER SERVICE DENVER/BOULDER CO
1100 PM MDT MON JUL 06 2015

NOTE: "FAIR" INDICATES FEW OR NO CLOUDS BELOW 12000 FEET WITH NO
SIGNIFICANT WEATHER AND/OR OBSTRUCTIONS TO VISIBILITY.

COZ001>005-013-030-031-070600-
...NORTHWEST COLORADO...

CITY           SKY/WX    TMP DP  RH WIND       PRES   REMARKS
CRAIG          CLOUDY    64  51  62 N17G26    30.25R
HAYDEN         CLOUDY    57  48  72 E24       30.23F
MEEKER         CLOUDY    61  52  72 CALM      30.25R
MOUNT WERNER   NOT AVBL
STEAMBOAT SPGS CLOUDY    55  50  81 CALM      30.28R
WALDEN         CLOUDY    54  50  87 SE6       30.34S
$$

COZ006>008-011-070600-
...WEST CENTRAL VALLEYS...

CITY           SKY/WX    TMP DP  RH WIND       PRES   REMARKS
GRAND JUNCTION CLOUDY    70  52  52 N8        30.11S
MONTROSE       MOCLDY    71  47  42 N5        30.19R
EAGLE          CLOUDY    61  55  82 NW5       30.25S
RIFLE          LGT RAIN  67  54  63 NW6       30.17R
DELTA          MOCLDY    70  51  50 NE8       30.11S
NUCLA          MOCLDY    64  50  59 CALM      30.22S
$$

COZ017>023-064>068-070600-
...SOUTHWEST COLORADO...

CITY           SKY/WX    TMP DP  RH WIND       PRES   REMARKS
DURANGO        CLOUDY    63  56  78 VRB3      30.22S
CORTEZ         CLEAR     64  53  67 E5        30.19R
PAGOSA SPRINGS CLOUDY    58  56  94 CALM      30.31S
TELLURIDE      MOCLDY    55  46  71 S3        30.42S
WOLF CREEK PAS NOT AVBL
$$

COZ009-010-012-014-032>034-037-058>063-070600-
...CENTRAL COLORADO...

CITY           SKY/WX    TMP DP  RH WIND       PRES   REMARKS
ASPEN          PTCLDY    56  46  69 S5        30.30S
BUENA VISTA    CLOUDY    54  49  85 E3        30.40S
COPPER MTN     PTCLDY    46  41  81 S15       30.60F
BERTHOUD PASS  HAZE      37  28  70 SE16G23   30.66S VSB<1/4
COTTONWOOD PAS NOT AVBL
GUNNISON       MOCLDY    61  46  59 N5        30.34R
KREMMLING      PTCLDY    55  50  82 CALM      30.31S
LEADVILLE      CLOUDY    47  47 100 S5        30.48R
MONARCH PASS   FOG       43  41  93 NE13      30.71R VSB<1/4
SALIDA         CLOUDY    56  52  85 SE5       30.45S
SUNLIGHT       PTCLDY    52  46  82 W3        30.54S
WILKERSON PASS FOG       43  43 100 SE3       30.61S VSB 1/2
$$

COZ069>075-070600-
...SAN LUIS VALLEY/SANGRE DE CRISTO MOUNTAINS...

CITY           SKY/WX    TMP DP  RH WIND       PRES   REMARKS
ALAMOSA        CLOUDY    55  53  93 W5        30.34R
LA VETA PASS   DRZL/FOG  43  41  93 MISG      30.51S VSB 3/4
SAGUACHE       PTCLDY    52  52 100 W3        30.37S
$$

COZ035-036-038>040-070600-
...NORTHERN COLORADO FRONT RANGE...

CITY           SKY/WX    TMP DP  RH WIND       PRES   REMARKS
DENVER INTL AP CLOUDY    61  54  77 E6        30.30R HAZE
DMNS CITY PARK   N/A     60  58  94 W1        30.31R
AURORA         MOCLDY    60  56  87 SE3       30.33R
FRONT RANGE AP NOT AVBL
ERIE MUNI ARPT CLOUDY    60  58  94 CALM      30.30S FOG
BOULDER MUN AP DRIZZLE   59  59 100 CALM      30.30S
CENTENNIAL     DRIZZLE   60  54  80 SE5       30.33R
BROOMFIELD     NOT AVBL
FORT COLLINS   CLOUDY    61  57  88 CALM      30.31S
LONGMONT       DRIZZLE   61  59  92 CALM      30.31S
$$

COZ041-046-047-076>085-087-088-070600-
...PIKES PEAK/PALMER DIVIDE AND SOUTHERN FOOTHILLS...

CITY           SKY/WX    TMP DP  RH WIND       PRES   REMARKS
COLO. SPRINGS  LGT RAIN  59  54  83 E9        30.36R FOG
A. F. ACADEMY  DRIZZLE   55  55 100 SE7       30.36R FOG
ELLICOTT       CLOUDY   N/A N/A N/A E8        30.33R
FALCON         DRIZZLE   55  54  95 CALM      30.39R
FORT CARSON    DRIZZLE   57  57 100 NW5       30.33R
LIMON          CLOUDY    60  52  74 E7        30.31R HAZE
MONUMENT HILL  CLOUDY    54  52  94 MISG      30.39S FOG
TRINIDAD       CLOUDY    61  56  83 NE8       30.29F
$$

COZ042>045-048>051-090-091-070600-
...NORTHEAST COLORADO...

CITY           SKY/WX    TMP DP  RH WIND       PRES   REMARKS
GREELEY ARPT   CLOUDY    63  55  77 SE7       30.29S
AKRON          CLOUDY    63  52  67 E8        30.28R HAZE
BURLINGTON     CLOUDY    62  52  69 NE8       30.25R HAZE
WRAY           CLOUDY    66  52  60 NE6       30.24S
STERLING       CLOUDY    64  55  72 NE3         N/A  HAZE
HOLYOKE        CLOUDY    64  52  63 E7        30.25S
FORT MORGAN    CLOUDY    63  51  65 E6        30.28S
$$

COZ086-089-092>099-070600-
...SOUTHEAST COLORADO...

CITY           SKY/WX    TMP DP  RH WIND       PRES   REMARKS
PUEBLO         CLOUDY    67  57  70 E3        30.26R
LA JUNTA       CLOUDY    69  54  58 E10       30.23S
LAMAR          CLOUDY    69  55  60 NE8       30.19R HAZE
SPRINGFIELD      N/A     65  57  75 NE10      30.22R
$$



USA.gov is the U.S. government's official web portal to all federal, state and local government web resources and services.